Location: Napa Soda Springs
(38.3907°N, 122.2794°W)
Time: 08:17:52
(UTC+00:00)

CZ-4B R/B - Pass Details

Date: 29 October 2020
Orbit: 388 x 461 km, 97.6° (Epoch: 03 December)

Event Time Altitude Azimuth Distance (km) Brightness Sun altitude
Rises 13:36:51 0° 195° (SSW) 2,480 5.1 -11.6°
Reaches altitude 10° 13:39:12 10° 211° (SSW) 1,609 4.0 -11.1°
Maximum altitude 13:41:58 22° 264° (W) 1,052 2.7 -10.6°
Drops below altitude 10° 13:44:44 10° 317° (NW) 1,607 3.7 -10.0°
Enters shadow 13:45:32 - 324° (NW) 1,888 4.1 -9.9°
